FLOCK 3P-87

Last updated on Wed Feb 14 2018 16:20:34 GMT+0000 (Coordinated Universal Time)

1 42044U 17008DA 18044.90668113 .00001725 00000-0 74327-4 0 9993 2 42044 97.4679 110.5449 0009903 73.2589 286.9734 15.23904531 54660

Satellite not in orbit

FLOCK 3P-87